Weather History for KFMY - September, 2013

Change the Weather History Date:

Monday, September 30, 2013

  Actual Average Record
Temperature  
Mean Temperature 81 °F 81 °F  
Max Temperature 91 °F 89 °F 94 °F (1988)
Min Temperature 71 °F 73 °F 66 °F (1947)
Degree Days  
Heating Degree Days 0 0  
Month to date heating degree days 0 0  
Since 1 July heating degree days 0 0  
Cooling Degree Days 16 16  
Month to date cooling degree days 487 522  
Year to date cooling degree days 3205 3246  
Growing Degree Days 30 (Base 50)    
Moisture  
Dew Point 70 °F    
Average Humidity 75    
Maximum Humidity 100    
Minimum Humidity 44    
Precipitation  
Precipitation T in 0.20 in 2.10 in (1918)
Month to date precipitation 10.92 8.31  
Year to date precipitation 50.52 49.38  
Sea Level Pressure  
Sea Level Pressure 29.95 in    
Wind  
Wind Speed 4 mph (ESE)    
Max Wind Speed 15 mph    
Max Gust Speed 18 mph    
Visibility 10 miles    
Events Rain    
T = Trace of Precipitation, MM = Missing Value Source: NWS Daily Summary

Daily Weather History Graph

Daily Weather History Graph

Search for Another Location

Airport or City:

Trip Planner

Search our weather history database for the weather conditions in past years. The results will help you decide how hot, cold, wet, or windy it might be!

Date:

Astronomy

Sep. 30, 2013 Rise Set
Actual Time 7:19 AM EDT 7:14 PM EDT
Civil Twilight 6:56 AM EDT 7:37 PM EDT
Nautical Twilight 6:29 AM EDT 8:04 PM EDT
Astronomical Twilight 6:02 AM EDT 8:31 PM EDT
Moon 3:16 AM EDT (9/30) 4:26 PM EDT (9/30)
Length of Visible Light 12h 41m
Length of Day
11h 55m
Waning Crescent, 19% of the Moon is Illuminated
Sep 30
Waning Crescent
Oct 4
New
Oct 11
First Quarter
Oct 18
Full
Oct 26
Last Quarter

Hourly Weather History & Observations

Time (EDT) Temp. Heat Index Dew Point Humidity Pressure Visibility Wind Dir Wind Speed Gust Speed Precip Events Conditions
12:53 AM 75.0 °F - 71.1 °F 87% 29.96 in 10.0 mi East 4.6 mph - N/A   Clear
1:53 AM 73.9 °F - 71.1 °F 91% 29.94 in 10.0 mi East 3.5 mph - N/A   Clear
2:53 AM 73.0 °F - 71.1 °F 93% 29.94 in 10.0 mi Calm Calm - N/A   Clear
3:53 AM 72.0 °F - 71.1 °F 97% 29.93 in 10.0 mi Calm Calm - N/A   Clear
4:53 AM 72.0 °F - 71.1 °F 97% 29.92 in 10.0 mi ESE 3.5 mph - N/A   Clear
5:53 AM 72.0 °F - 70.0 °F 93% 29.93 in 10.0 mi Calm Calm - N/A   Clear
6:53 AM 71.1 °F - 70.0 °F 96% 29.95 in 10.0 mi East 3.5 mph - N/A   Clear
7:53 AM 73.0 °F - 71.1 °F 93% 29.96 in 10.0 mi Calm Calm - N/A   Clear
8:53 AM 75.9 °F - 71.1 °F 85% 29.97 in 10.0 mi ESE 5.8 mph - N/A   Clear
9:53 AM 80.1 °F 83.2 °F 70.0 °F 71% 29.97 in 10.0 mi ESE 6.9 mph - N/A   Clear
10:53 AM 82.9 °F 86.5 °F 69.1 °F 63% 29.97 in 10.0 mi ESE 6.9 mph - N/A   Clear
11:53 AM 84.9 °F 88.2 °F 68.0 °F 57% 29.97 in 10.0 mi East 4.6 mph - N/A   Clear
12:53 PM 86.0 °F 88.8 °F 66.9 °F 53% 29.95 in 10.0 mi Variable 5.8 mph - N/A   Partly Cloudy
1:53 PM 88.0 °F 89.6 °F 64.9 °F 46% 29.93 in 10.0 mi ESE 6.9 mph - N/A   Partly Cloudy
2:53 PM 89.1 °F 91.3 °F 66.0 °F 46% 29.91 in 10.0 mi Variable 3.5 mph - N/A   Partly Cloudy
3:53 PM 90.0 °F 92.4 °F 66.0 °F 45% 29.90 in 10.0 mi North 3.5 mph - N/A   Partly Cloudy
4:53 PM 89.1 °F 91.0 °F 64.9 °F 45% 29.89 in 10.0 mi ESE 4.6 mph - N/A   Partly Cloudy
5:53 PM 86.0 °F 92.2 °F 72.0 °F 63% 29.91 in 10.0 mi WSW 6.9 mph - N/A   Overcast
6:53 PM 84.0 °F 89.6 °F 72.0 °F 67% 29.92 in 10.0 mi WSW 6.9 mph - N/A   Partly Cloudy
7:53 PM 82.9 °F 88.0 °F 72.0 °F 69% 29.94 in 10.0 mi SW 3.5 mph - N/A   Mostly Cloudy
8:12 PM 80.6 °F 84.6 °F 71.6 °F 74% 29.95 in 10.0 mi SSE 10.4 mph 17.3 mph N/A   Overcast
8:19 PM 78.8 °F - 73.4 °F 83% 29.95 in 10.0 mi SE 12.7 mph - N/A   Overcast
8:53 PM 75.9 °F - 72.0 °F 87% 29.98 in 10.0 mi NNE 10.4 mph - 0.00 in Rain Light Rain
9:53 PM 75.9 °F - 72.0 °F 87% 30.00 in 10.0 mi SSE 8.1 mph - 0.00 in   Scattered Clouds
10:53 PM 75.9 °F - 70.0 °F 82% 30.00 in 10.0 mi Calm Calm - N/A   Partly Cloudy
11:53 PM 75.9 °F - 72.0 °F 87% 30.00 in 10.0 mi East 3.5 mph - N/A   Overcast